Time,TemperatureF,DewpointF,PressureIn,WindDirection,WindDirectionDegrees,WindSpeedMPH,WindSpeedGustMPH,Humidity,HourlyPrecipIn,Conditions,Clouds,dailyrainin,SoftwareType,DateUTC
2013-03-26 00:00:00,40.0,25.5,29.81,West,270,3.0,22.0,56,0.00,,,0.00,Weather View 32 v70,2013-03-26 04:00:00,
2013-03-26 00:05:00,39.0,24.6,29.81,WSW,248,11.0,21.0,56,0.00,,,0.00,Weather View 32 v70,2013-03-26 04:05:00,
2013-03-26 00:10:00,39.0,25.0,29.81,West,270,6.0,19.0,57,0.00,,,0.00,Weather View 32 v70,2013-03-26 04:10:00,
2013-03-26 00:15:00,39.0,25.0,29.81,West,270,6.0,19.0,57,0.00,,,0.00,Weather View 32 v70,2013-03-26 04:15:00,
2013-03-26 00:20:00,39.0,25.5,29.82,West,270,7.0,19.0,58,0.00,,,0.00,Weather View 32 v70,2013-03-26 04:20:00,
2013-03-26 00:25:00,39.0,25.5,29.82,WSW,248,10.0,19.0,58,0.00,,,0.00,Weather View 32 v70,2013-03-26 04:25:00,
2013-03-26 00:30:00,39.0,25.5,29.82,West,270,11.0,19.0,58,0.00,,,0.00,Weather View 32 v70,2013-03-26 04:30:00,
2013-03-26 00:35:00,39.0,25.5,29.81,NNW,338,9.0,19.0,58,0.00,,,0.00,Weather View 32 v70,2013-03-26 04:35:00,
2013-03-26 00:40:00,39.0,25.9,29.82,West,270,5.0,19.0,59,0.00,,,0.00,Weather View 32 v70,2013-03-26 04:40:00,
2013-03-26 00:45:00,39.0,25.9,29.82,WSW,248,8.0,19.0,59,0.00,,,0.00,Weather View 32 v70,2013-03-26 04:45:00,
2013-03-26 00:50:00,38.0,25.3,29.82,NNW,338,5.0,19.0,60,0.00,,,0.00,Weather View 32 v70,2013-03-26 04:50:00,
2013-03-26 00:55:00,38.0,25.3,29.83,WSW,248,4.0,16.0,60,0.00,,,0.00,Weather View 32 v70,2013-03-26 04:55:00,
2013-03-26 01:00:00,38.0,26.1,29.83,South,180,8.0,16.0,62,0.00,,,0.00,Weather View 32 v70,2013-03-26 05:00:00,
2013-03-26 01:05:00,37.0,25.6,29.83,WSW,248,5.0,16.0,63,0.00,,,0.00,Weather View 32 v70,2013-03-26 05:05:00,
2013-03-26 01:10:00,37.0,26.3,29.83,WSW,248,6.0,15.0,65,0.00,,,0.00,Weather View 32 v70,2013-03-26 05:10:00,
2013-03-26 01:15:00,37.0,26.7,29.83,South,180,6.0,15.0,66,0.00,,,0.00,Weather View 32 v70,2013-03-26 05:15:00,
2013-03-26 01:20:00,36.0,26.1,29.84,WSW,248,5.0,15.0,67,0.00,,,0.00,Weather View 32 v70,2013-03-26 05:20:00,
2013-03-26 01:25:00,36.0,26.8,29.84,South,180,5.0,15.0,69,0.00,,,0.00,Weather View 32 v70,2013-03-26 05:25:00,
2013-03-26 01:26:00,36.0,26.8,29.84,WSW,248,4.0,15.0,69,0.00,,,0.00,Weather View 32 v70,2013-03-26 05:26:00,
2013-03-26 01:38:00,36.0,26.8,29.84,WSW,248,6.0,15.0,69,0.00,,,0.00,Weather View 32 v70,2013-03-26 05:38:00,
2013-03-26 01:43:00,36.0,27.5,29.84,WSW,248,8.0,14.0,71,0.00,,,0.00,Weather View 32 v70,2013-03-26 05:43:00,
2013-03-26 01:48:00,35.0,26.9,29.84,WSW,248,7.0,14.0,72,0.00,,,0.00,Weather View 32 v70,2013-03-26 05:48:00,
2013-03-26 01:53:00,35.0,26.9,29.84,South,180,10.0,14.0,72,0.00,,,0.00,Weather View 32 v70,2013-03-26 05:53:00,
2013-03-26 01:58:00,35.0,27.2,29.84,WSW,248,5.0,14.0,73,0.00,,,0.00,Weather View 32 v70,2013-03-26 05:58:00,
2013-03-26 02:03:00,35.0,27.2,29.84,South,180,4.0,14.0,73,0.00,,,0.00,Weather View 32 v70,2013-03-26 06:03:00,
2013-03-26 02:08:00,35.0,27.5,29.84,WSW,248,8.0,14.0,74,0.00,,,0.00,Weather View 32 v70,2013-03-26 06:08:00,
2013-03-26 02:13:00,35.0,27.5,29.84,South,180,10.0,14.0,74,0.00,,,0.00,Weather View 32 v70,2013-03-26 06:13:00,
2013-03-26 02:18:00,35.0,27.5,29.84,South,180,7.0,14.0,74,0.00,,,0.00,Weather View 32 v70,2013-03-26 06:18:00,
2013-03-26 02:23:00,35.0,27.5,29.85,WSW,248,5.0,14.0,74,0.00,,,0.00,Weather View 32 v70,2013-03-26 06:23:00,
2013-03-26 02:28:00,35.0,27.5,29.85,WSW,248,5.0,14.0,74,0.00,,,0.00,Weather View 32 v70,2013-03-26 06:28:00,
2013-03-26 02:33:00,35.0,27.5,29.84,South,180,6.0,14.0,74,0.00,,,0.00,Weather View 32 v70,2013-03-26 06:33:00,
2013-03-26 02:38:00,35.0,27.5,29.84,WSW,248,2.0,13.0,74,0.00,,,0.00,Weather View 32 v70,2013-03-26 06:38:00,
2013-03-26 02:43:00,35.0,27.5,29.85,WSW,248,8.0,13.0,74,0.00,,,0.00,Weather View 32 v70,2013-03-26 06:43:00,
2013-03-26 02:48:00,34.0,26.6,29.85,WSW,248,6.0,13.0,74,0.00,,,0.00,Weather View 32 v70,2013-03-26 06:48:00,
2013-03-26 02:53:00,34.0,26.9,29.85,WSW,248,4.0,13.0,75,0.00,,,0.00,Weather View 32 v70,2013-03-26 06:53:00,
2013-03-26 03:00:00,34.0,27.2,29.85,WSW,248,6.0,13.0,76,0.00,,,0.00,Weather View 32 v70,2013-03-26 07:00:00,
2013-03-26 03:10:00,34.0,27.2,29.85,WSW,248,6.0,13.0,76,0.00,,,0.00,Weather View 32 v70,2013-03-26 07:10:00,
2013-03-26 03:15:00,34.0,27.2,29.85,NNW,338,3.0,13.0,76,0.00,,,0.00,Weather View 32 v70,2013-03-26 07:15:00,
2013-03-26 03:20:00,34.0,27.2,29.85,South,180,3.0,13.0,76,0.00,,,0.00,Weather View 32 v70,2013-03-26 07:20:00,
2013-03-26 03:25:00,34.0,27.5,29.85,WSW,248,3.0,13.0,77,0.00,,,0.00,Weather View 32 v70,2013-03-26 07:25:00,
2013-03-26 03:30:00,34.0,27.5,29.85,South,180,9.0,13.0,77,0.00,,,0.00,Weather View 32 v70,2013-03-26 07:30:00,
2013-03-26 03:35:00,33.0,26.6,29.85,South,180,4.0,11.0,77,0.00,,,0.00,Weather View 32 v70,2013-03-26 07:35:00,
2013-03-26 03:40:00,33.0,26.9,29.85,WSW,248,7.0,11.0,78,0.00,,,0.00,Weather View 32 v70,2013-03-26 07:40:00,
2013-03-26 03:45:00,33.0,26.9,29.86,WSW,248,3.0,11.0,78,0.00,,,0.00,Weather View 32 v70,2013-03-26 07:45:00,
2013-03-26 03:50:00,33.0,26.9,29.86,WSW,248,3.0,11.0,78,0.00,,,0.00,Weather View 32 v70,2013-03-26 07:50:00,
2013-03-26 03:55:00,33.0,27.2,29.86,South,180,1.0,11.0,79,0.00,,,0.00,Weather View 32 v70,2013-03-26 07:55:00,
2013-03-26 04:00:00,33.0,27.2,29.86,South,180,6.0,11.0,79,0.00,,,0.00,Weather View 32 v70,2013-03-26 08:00:00,
2013-03-26 04:05:00,33.0,27.2,29.86,WSW,248,2.0,10.0,79,0.00,,,0.00,Weather View 32 v70,2013-03-26 08:05:00,
2013-03-26 04:10:00,33.0,27.5,29.86,South,180,3.0,10.0,80,0.00,,,0.00,Weather View 32 v70,2013-03-26 08:10:00,
2013-03-26 04:15:00,32.0,26.5,29.86,South,180,3.0,10.0,80,0.00,,,0.00,Weather View 32 v70,2013-03-26 08:15:00,
2013-03-26 04:20:00,32.0,26.8,29.85,WSW,248,3.0,9.0,81,0.00,,,0.00,Weather View 32 v70,2013-03-26 08:20:00,
2013-03-26 04:25:00,32.0,26.8,29.86,WSW,248,3.0,9.0,81,0.00,,,0.00,Weather View 32 v70,2013-03-26 08:25:00,
2013-03-26 04:30:00,32.0,26.8,29.86,WSW,248,3.0,9.0,81,0.00,,,0.00,Weather View 32 v70,2013-03-26 08:30:00,
2013-03-26 04:35:00,32.0,26.8,29.86,WSW,248,4.0,8.0,81,0.00,,,0.00,Weather View 32 v70,2013-03-26 08:35:00,
2013-03-26 04:40:00,32.0,26.8,29.86,West,270,4.0,9.0,81,0.00,,,0.00,Weather View 32 v70,2013-03-26 08:40:00,
2013-03-26 04:45:00,32.0,26.8,29.86,WSW,248,5.0,9.0,81,0.00,,,0.00,Weather View 32 v70,2013-03-26 08:45:00,
2013-03-26 04:50:00,32.0,26.8,29.86,West,270,3.0,9.0,81,0.00,,,0.00,Weather View 32 v70,2013-03-26 08:50:00,
2013-03-26 04:55:00,32.0,26.8,29.86,WSW,248,3.0,9.0,81,0.00,,,0.00,Weather View 32 v70,2013-03-26 08:55:00,
2013-03-26 05:00:00,32.0,26.8,29.86,WSW,248,3.0,9.0,81,0.00,,,0.00,Weather View 32 v70,2013-03-26 09:00:00,
2013-03-26 05:05:00,32.0,27.1,29.86,WSW,248,4.0,9.0,82,0.00,,,0.00,Weather View 32 v70,2013-03-26 09:05:00,
2013-03-26 05:10:00,32.0,27.1,29.86,South,180,3.0,9.0,82,0.00,,,0.00,Weather View 32 v70,2013-03-26 09:10:00,
2013-03-26 05:15:00,31.0,26.1,29.86,WSW,248,3.0,9.0,82,0.00,,,0.00,Weather View 32 v70,2013-03-26 09:15:00,
2013-03-26 05:20:00,31.0,26.4,29.86,WSW,248,3.0,9.0,83,0.00,,,0.00,Weather View 32 v70,2013-03-26 09:20:00,
2013-03-26 05:25:00,31.0,26.7,29.86,WSW,248,3.0,9.0,84,0.00,,,0.00,Weather View 32 v70,2013-03-26 09:25:00,
2013-03-26 05:30:00,31.0,26.7,29.87,South,180,3.0,9.0,84,0.00,,,0.00,Weather View 32 v70,2013-03-26 09:30:00,
2013-03-26 05:35:00,31.0,26.7,29.87,WSW,248,3.0,9.0,84,0.00,,,0.00,Weather View 32 v70,2013-03-26 09:35:00,
2013-03-26 05:44:00,31.0,27.0,29.87,South,180,4.0,7.0,85,0.00,,,0.00,Weather View 32 v70,2013-03-26 09:44:00,
2013-03-26 05:49:00,31.0,27.0,29.87,WSW,248,3.0,7.0,85,0.00,,,0.00,Weather View 32 v70,2013-03-26 09:49:00,
2013-03-26 05:54:00,31.0,27.0,29.87,South,180,3.0,7.0,85,0.00,,,0.00,Weather View 32 v70,2013-03-26 09:54:00,
2013-03-26 05:59:00,31.0,27.0,29.88,WSW,248,3.0,7.0,85,0.00,,,0.00,Weather View 32 v70,2013-03-26 09:59:00,
2013-03-26 06:04:00,30.0,26.0,29.88,South,180,4.0,7.0,85,0.00,,,0.00,Weather View 32 v70,2013-03-26 10:04:00,
2013-03-26 06:09:00,30.0,26.0,29.88,South,180,2.0,7.0,85,0.00,,,0.00,Weather View 32 v70,2013-03-26 10:09:00,
2013-03-26 06:14:00,30.0,26.3,29.88,South,180,4.0,7.0,86,0.00,,,0.00,Weather View 32 v70,2013-03-26 10:14:00,
2013-03-26 06:19:00,30.0,26.3,29.88,South,180,4.0,7.0,86,0.00,,,0.00,Weather View 32 v70,2013-03-26 10:19:00,
2013-03-26 06:24:00,30.0,26.6,29.88,South,180,4.0,6.0,87,0.00,,,0.00,Weather View 32 v70,2013-03-26 10:24:00,
2013-03-26 06:29:00,30.0,26.6,29.88,WSW,248,3.0,6.0,87,0.00,,,0.00,Weather View 32 v70,2013-03-26 10:29:00,
2013-03-26 06:34:00,30.0,26.6,29.88,South,180,3.0,6.0,87,0.00,,,0.00,Weather View 32 v70,2013-03-26 10:34:00,
2013-03-26 06:39:00,30.0,26.6,29.88,South,180,4.0,6.0,87,0.00,,,0.00,Weather View 32 v70,2013-03-26 10:39:00,
2013-03-26 06:44:00,30.0,26.6,29.89,South,180,3.0,6.0,87,0.00,,,0.00,Weather View 32 v70,2013-03-26 10:44:00,
2013-03-26 06:49:00,30.0,26.9,29.89,South,180,4.0,6.0,88,0.00,,,0.00,Weather View 32 v70,2013-03-26 10:49:00,
2013-03-26 06:54:00,30.0,26.9,29.89,South,180,3.0,6.0,88,0.00,,,0.00,Weather View 32 v70,2013-03-26 10:54:00,
2013-03-26 06:59:00,30.0,26.9,29.89,WSW,248,3.0,6.0,88,0.00,,,0.00,Weather View 32 v70,2013-03-26 10:59:00,
2013-03-26 07:04:00,30.0,26.9,29.89,WSW,248,3.0,6.0,88,0.00,,,0.00,Weather View 32 v70,2013-03-26 11:04:00,
2013-03-26 07:09:00,30.0,26.9,29.88,WSW,248,3.0,6.0,88,0.00,,,0.00,Weather View 32 v70,2013-03-26 11:09:00,
2013-03-26 07:14:00,30.0,26.9,29.88,South,180,4.0,6.0,88,0.00,,,0.00,Weather View 32 v70,2013-03-26 11:14:00,
2013-03-26 07:19:00,30.0,26.9,29.88,South,180,5.0,8.0,88,0.00,,,0.00,Weather View 32 v70,2013-03-26 11:19:00,
2013-03-26 07:25:00,30.0,26.9,29.88,South,180,6.0,8.0,88,0.00,,,0.00,Weather View 32 v70,2013-03-26 11:25:00,
2013-03-26 07:30:00,31.0,27.6,29.88,South,180,7.0,10.0,87,0.00,,,0.00,Weather View 32 v70,2013-03-26 11:30:00,
2013-03-26 07:35:00,31.0,27.6,29.88,South,180,5.0,10.0,87,0.00,,,0.00,Weather View 32 v70,2013-03-26 11:35:00,
2013-03-26 07:40:00,31.0,27.6,29.88,WSW,248,5.0,10.0,87,0.00,,,0.00,Weather View 32 v70,2013-03-26 11:40:00,
2013-03-26 07:45:00,31.0,27.6,29.89,South,180,6.0,10.0,87,0.00,,,0.00,Weather View 32 v70,2013-03-26 11:45:00,
2013-03-26 07:50:00,31.0,27.6,29.88,South,180,4.0,10.0,87,0.00,,,0.00,Weather View 32 v70,2013-03-26 11:50:00,
2013-03-26 07:55:00,31.0,27.3,29.89,South,180,5.0,11.0,86,0.00,,,0.00,Weather View 32 v70,2013-03-26 11:55:00,
2013-03-26 18:45:00,47.0,27.3,29.96,NNW,338,5.0,6.0,46,0.00,,,0.00,Weather View 32 v70,2013-03-26 22:45:00,
2013-03-26 18:50:00,47.0,27.3,29.96,North,0,6.0,11.0,46,0.00,,,0.00,Weather View 32 v70,2013-03-26 22:50:00,
2013-03-26 18:55:00,47.0,27.3,29.97,NNW,338,6.0,13.0,46,0.00,,,0.00,Weather View 32 v70,2013-03-26 22:55:00,
2013-03-26 19:00:00,47.0,27.3,29.97,West,270,10.0,13.0,46,0.00,,,0.00,Weather View 32 v70,2013-03-26 23:00:00,
2013-03-26 19:05:00,47.0,27.3,29.97,NNW,338,5.0,15.0,46,0.00,,,0.00,Weather View 32 v70,2013-03-26 23:05:00,
2013-03-26 19:10:00,47.0,27.3,29.98,North,0,8.0,15.0,46,0.00,,,0.00,Weather View 32 v70,2013-03-26 23:10:00,
2013-03-26 19:15:00,47.0,27.3,29.98,NNW,338,8.0,15.0,46,0.00,,,0.00,Weather View 32 v70,2013-03-26 23:15:00,
2013-03-26 19:20:00,47.0,27.8,29.98,North,0,4.0,15.0,47,0.00,,,0.00,Weather View 32 v70,2013-03-26 23:20:00,
2013-03-26 19:25:00,46.0,26.9,29.98,West,270,7.0,15.0,47,0.00,,,0.00,Weather View 32 v70,2013-03-26 23:25:00,
2013-03-26 19:30:00,46.0,27.4,29.98,NNW,338,8.0,15.0,48,0.00,,,0.00,Weather View 32 v70,2013-03-26 23:30:00,
2013-03-26 19:35:00,46.0,27.4,29.98,NNW,338,7.0,15.0,48,0.00,,,0.00,Weather View 32 v70,2013-03-26 23:35:00,
2013-03-26 19:40:00,46.0,26.9,29.98,West,270,3.0,15.0,47,0.00,,,0.00,Weather View 32 v70,2013-03-26 23:40:00,
2013-03-26 19:45:00,46.0,27.9,29.99,NNW,338,7.0,15.0,49,0.00,,,0.00,Weather View 32 v70,2013-03-26 23:45:00,
2013-03-26 19:50:00,46.0,27.4,29.99,North,0,7.0,16.0,48,0.00,,,0.00,Weather View 32 v70,2013-03-26 23:50:00,
2013-03-26 19:55:00,46.0,27.9,29.99,NNW,338,6.0,16.0,49,0.00,,,0.00,Weather View 32 v70,2013-03-26 23:55:00,
2013-03-26 20:00:00,46.0,27.4,30.00,NNW,338,5.0,16.0,48,0.00,,,0.00,Weather View 32 v70,2013-03-27 00:00:00,
2013-03-26 20:05:00,46.0,27.9,30.00,North,0,6.0,16.0,49,0.00,,,0.00,Weather View 32 v70,2013-03-27 00:05:00,
2013-03-26 20:10:00,46.0,27.9,30.00,NNW,338,5.0,16.0,49,0.00,,,0.00,Weather View 32 v70,2013-03-27 00:10:00,
2013-03-26 20:15:00,46.0,28.4,30.00,North,0,5.0,16.0,50,0.00,,,0.00,Weather View 32 v70,2013-03-27 00:15:00,
2013-03-26 20:20:00,45.0,27.9,30.01,West,270,6.0,16.0,51,0.00,,,0.00,Weather View 32 v70,2013-03-27 00:20:00,
2013-03-26 20:25:00,45.0,27.5,30.01,NNW,338,9.0,16.0,50,0.00,,,0.00,Weather View 32 v70,2013-03-27 00:25:00,
2013-03-26 20:30:00,45.0,27.9,30.01,NNW,338,6.0,16.0,51,0.00,,,0.00,Weather View 32 v70,2013-03-27 00:30:00,
2013-03-26 20:35:00,45.0,27.9,30.01,North,0,5.0,16.0,51,0.00,,,0.00,Weather View 32 v70,2013-03-27 00:35:00,
2013-03-26 20:40:00,45.0,27.9,30.01,North,0,6.0,16.0,51,0.00,,,0.00,Weather View 32 v70,2013-03-27 00:40:00,
2013-03-26 20:45:00,45.0,27.9,30.02,West,270,4.0,16.0,51,0.00,,,0.00,Weather View 32 v70,2013-03-27 00:45:00,
2013-03-26 20:50:00,45.0,27.9,30.02,West,270,8.0,16.0,51,0.00,,,0.00,Weather View 32 v70,2013-03-27 00:50:00,
2013-03-26 20:55:00,45.0,27.9,30.02,NNW,338,6.0,16.0,51,0.00,,,0.00,Weather View 32 v70,2013-03-27 00:55:00,
2013-03-26 21:00:00,45.0,28.4,30.02,NNW,338,13.0,16.0,52,0.00,,,0.00,Weather View 32 v70,2013-03-27 01:00:00,
2013-03-26 21:05:00,45.0,28.4,30.03,West,270,5.0,16.0,52,0.00,,,0.00,Weather View 32 v70,2013-03-27 01:05:00,
2013-03-26 21:10:00,45.0,28.4,30.03,West,270,10.0,16.0,52,0.00,,,0.00,Weather View 32 v70,2013-03-27 01:10:00,
2013-03-26 21:15:00,45.0,28.9,30.03,NNW,338,8.0,16.0,53,0.00,,,0.00,Weather View 32 v70,2013-03-27 01:15:00,
2013-03-26 21:20:00,44.0,27.9,30.03,North,0,8.0,16.0,53,0.00,,,0.00,Weather View 32 v70,2013-03-27 01:20:00,
2013-03-26 21:25:00,44.0,27.9,30.04,NNW,338,5.0,16.0,53,0.00,,,0.00,Weather View 32 v70,2013-03-27 01:25:00,
2013-03-26 21:30:00,44.0,28.4,30.04,NNW,338,3.0,16.0,54,0.00,,,0.00,Weather View 32 v70,2013-03-27 01:30:00,
2013-03-26 21:35:00,44.0,28.4,30.04,NNW,338,5.0,16.0,54,0.00,,,0.00,Weather View 32 v70,2013-03-27 01:35:00,
2013-03-26 21:40:00,44.0,28.4,30.04,NNW,338,10.0,16.0,54,0.00,,,0.00,Weather View 32 v70,2013-03-27 01:40:00,
2013-03-26 21:45:00,44.0,28.4,30.04,NNW,338,7.0,16.0,54,0.00,,,0.00,Weather View 32 v70,2013-03-27 01:45:00,
2013-03-26 21:50:00,44.0,28.8,30.05,NNW,338,6.0,16.0,55,0.00,,,0.00,Weather View 32 v70,2013-03-27 01:50:00,
2013-03-26 21:55:00,43.0,27.9,30.05,NNW,338,5.0,16.0,55,0.00,,,0.00,Weather View 32 v70,2013-03-27 01:55:00,
2013-03-26 22:00:00,43.0,27.9,30.05,NNW,338,8.0,16.0,55,0.00,,,0.00,Weather View 32 v70,2013-03-27 02:00:00,
2013-03-26 22:05:00,43.0,28.4,30.05,NNW,338,6.0,16.0,56,0.00,,,0.00,Weather View 32 v70,2013-03-27 02:05:00,
2013-03-26 22:10:00,43.0,27.9,30.05,North,0,6.0,16.0,55,0.00,,,0.00,Weather View 32 v70,2013-03-27 02:10:00,
2013-03-26 22:15:00,43.0,28.4,30.05,NNW,338,8.0,16.0,56,0.00,,,0.00,Weather View 32 v70,2013-03-27 02:15:00,
2013-03-26 22:20:00,43.0,28.4,30.05,NNW,338,5.0,16.0,56,0.00,,,0.00,Weather View 32 v70,2013-03-27 02:20:00,
2013-03-26 22:25:00,42.0,27.4,30.05,NNW,338,6.0,16.0,56,0.00,,,0.00,Weather View 32 v70,2013-03-27 02:25:00,
2013-03-26 22:30:00,42.0,27.9,30.05,NNW,338,4.0,16.0,57,0.00,,,0.00,Weather View 32 v70,2013-03-27 02:30:00,
2013-03-26 22:35:00,42.0,27.9,30.06,West,270,8.0,16.0,57,0.00,,,0.00,Weather View 32 v70,2013-03-27 02:35:00,
2013-03-26 22:40:00,42.0,27.9,30.06,West,270,5.0,16.0,57,0.00,,,0.00,Weather View 32 v70,2013-03-27 02:40:00,
2013-03-26 22:46:00,41.0,27.3,30.06,NNW,338,3.0,14.0,58,0.00,,,0.00,Weather View 32 v70,2013-03-27 02:46:00,
2013-03-26 22:51:00,41.0,27.3,30.06,West,270,6.0,14.0,58,0.00,,,0.00,Weather View 32 v70,2013-03-27 02:51:00,
2013-03-26 22:56:00,41.0,27.3,30.07,West,270,3.0,14.0,58,0.00,,,0.00,Weather View 32 v70,2013-03-27 02:56:00,
2013-03-26 23:01:00,41.0,27.8,30.07,West,270,4.0,13.0,59,0.00,,,0.00,Weather View 32 v70,2013-03-27 03:01:00,
2013-03-26 23:06:00,41.0,27.8,30.07,North,0,2.0,13.0,59,0.00,,,0.00,Weather View 32 v70,2013-03-27 03:06:00,
2013-03-26 23:11:00,40.0,27.2,30.07,NNW,338,3.0,13.0,60,0.00,,,0.00,Weather View 32 v70,2013-03-27 03:11:00,
2013-03-26 23:16:00,40.0,27.6,30.07,NNW,338,3.0,13.0,61,0.00,,,0.00,Weather View 32 v70,2013-03-27 03:16:00,
2013-03-26 23:21:00,40.0,27.6,30.07,West,270,4.0,11.0,61,0.00,,,0.00,Weather View 32 v70,2013-03-27 03:21:00,
2013-03-26 23:26:00,40.0,27.6,30.07,NNW,338,3.0,10.0,61,0.00,,,0.00,Weather View 32 v70,2013-03-27 03:26:00,
2013-03-26 23:31:00,40.0,27.6,30.07,West,270,5.0,10.0,61,0.00,,,0.00,Weather View 32 v70,2013-03-27 03:31:00,
2013-03-26 23:36:00,40.0,27.6,30.07,West,270,2.0,10.0,61,0.00,,,0.00,Weather View 32 v70,2013-03-27 03:36:00,
2013-03-26 23:41:00,40.0,27.6,30.07,West,270,4.0,10.0,61,0.00,,,0.00,Weather View 32 v70,2013-03-27 03:41:00,
2013-03-26 23:46:00,40.0,27.6,30.07,West,270,5.0,10.0,61,0.00,,,0.00,Weather View 32 v70,2013-03-27 03:46:00,
2013-03-26 23:51:00,39.0,26.7,30.08,North,0,3.0,8.0,61,0.00,,,0.00,Weather View 32 v70,2013-03-27 03:51:00,
2013-03-26 23:57:00,39.0,26.7,30.08,NNW,338,5.0,8.0,61,0.00,,,0.00,Weather View 32 v70,2013-03-27 03:57:00,